{"data":{"norad_id":65785,"epoch":"2026-09-20T15:59:18.289824Z","epoch_age_seconds":132614,"freshness":"FRESH","line1":"1 65785U 25217Z   26263.66618391  .00000267  00000+0  64083-4 0  9996","line2":"2 65785  51.9010 238.4142 0001081  50.6854 309.4205 14.79928809 54066","mean_motion":14.79928809,"eccentricity":0.0001081,"inclination_deg":51.901,"raan_deg":238.4142,"arg_perigee_deg":50.6854,"mean_anomaly_deg":309.4205,"bstar":6.4083e-5,"rev_number":5406,"period_min":97.301977719659,"perigee_km":628.79132831331,"apogee_km":630.30638999606,"semimajor_km":7007.6858591547,"source":"CELESTRAK","updated_at":"2026-09-21T09:00:15.562189Z"}}